Simultaneous Nadir Overpasses (SNOs) Predictions

Prediction of SNOs between GOES-16 and LANDSAT-8 Satellite Orbit:

Table of predicted SNOs for the next 14.0 days since TLE Epoch: 11/18/2023
Index Date Time (GOES-16) GOES-16 Lat,Lon LANDSAT-8 Lat,Lon Distance(km) Time Diff (sec)
1 11/19/2023 15:06:45 -0.04, -75.23 -0.33, -73.94 146.28 80
2 11/20/2023 03:30:48 0.04, -75.21 -0.80, -79.13 445.77 80
3 11/21/2023 14:54:34 -0.04, -75.24 -0.93, -70.98 483.80 80
4 11/22/2023 03:18:38 0.04, -75.23 -0.19, -76.17 108.07 80
5 11/24/2023 03:03:48 0.04, -75.25 0.48, -73.23 230.50 80
6 11/24/2023 15:27:42 -0.03, -75.27 0.65, -78.38 353.16 80
7 11/26/2023 15:15:31 -0.03, -75.30 0.02, -75.42 14.25 80
8 11/28/2023 15:03:21 -0.02, -75.33 -0.62, -72.47 325.72 80
9 11/29/2023 03:24:44 0.02, -75.32 -0.49, -77.66 265.47 80
10 12/01/2023 03:09:53 0.01, -75.36 0.17, -74.71 75.07 80
